Location: Eurasberg
(48.3353°N, 11.0839°E)
Time: 04:51:05
(UTC+00:00)

Cosmos 1408 Rocket - Visible Passes

Search period start: 19 April 2026 00:00
Search period end: 29 April 2026 00:00
Orbit: 594 x 623 km, 82.6° (Epoch: 18 April)

Date Brightness Start Highest point End Pass type
(mag) Time Alt. Az. Time Alt. Az. Time Alt. Az.
19 Apr 6.5 02:30:31 10° NNE 02:33:30 18° ENE 02:36:28 10° ESE visible
20 Apr 5.7 02:43:56 10° NNE 02:47:39 28° ENE 02:51:19 10° SE visible
21 Apr 4.8 02:57:35 10° N 03:01:43 44° ENE 03:05:48 10° SSE visible
22 Apr 3.7 03:11:24 10° N 03:15:43 74° E 03:19:57 10° SSE visible
23 Apr 6.5 01:49:06 10° NNE 01:51:29 14° ENE 01:53:50 10° E visible
23 Apr 3.5 03:25:21 10° NNW 03:29:37 66° W 03:33:50 10° S visible
24 Apr 6.0 02:02:17 10° NNE 02:05:40 22° ENE 02:09:00 10° ESE visible
25 Apr 5.2 02:15:50 10° N 02:19:46 34° ENE 02:23:40 10° SE visible
26 Apr 4.2 02:29:33 10° N 02:33:47 56° ENE 02:37:59 10° SSE visible
27 Apr 6.6 01:08:03 10° NE 01:09:25 11° ENE 01:10:48 10° E visible
27 Apr 3.4 02:43:26 10° N 02:47:44 87° W 02:52:00 10° S visible
28 Apr 6.2 01:20:44 10° NNE 01:23:39 18° ENE 01:26:33 10° ESE visible
28 Apr 3.7 02:57:27 10° NNW 03:01:37 51° W 03:05:45 10° S visible
